OpenBCM V2.0.3 (Linux)

Packet Radio Mailbox

IZ3LSV

[San Dona' di P. JN]

 Login: GUEST





  
LU1HVK > KEP      28.09.19 07:29l 252 Lines 12372 Bytes #999 (0) @ WW
BID : 32529_LU1HVK
Read: GUEST
Subj: TLE 28 09
Path: IZ3LSV<I0OJJ<VE2PKT<N3HYM<IV3BVK<IK5FKA<LU9HGS<LU1HVK
Sent: 190928/0522Z 32529@LU1HVK.2594.CBA.ARG.SA LinBPQ6.0.19

>From lu1hvk%lu1hvk.2594.cba.arg.sa@i0ojj.ampr.org Sat Sep 28 07:28:48 2019
Received: from i0ojj.ampr.org by i0ojj.ampr.org (JNOS2.0k.3b2) with SMTP
	id AA27708 ; Sat, 28 Sep 2019 07:28:48 +0200
Message-Id: <32529_LU1HVK@ve2pkt.bbs>
>From: lu1hvk@lu1hvk.2594.cba.arg.sa
X-JNOS-User-Port: Telnet   (ve2pkt @ 144.172.216.109)  -> Sending message

                         _    _   _ _ _   ___     ___  __
                        | |  | | | / | | | \ \   / / |/ /
                        | |  | | | | | |_| |\ \ / /| ' /
                        | |__| |_| | |  _  | \ V / | . \
                        |_____\___/|_|_| |_|  \_/  |_|\_\

     BBS/NODO - CORDOBA (LEONES-FF87UH) - LU1HVK-4 NODO - LU1HVK-3 APRS

+----------------------------------------------------------------------------+
OSCAR 7
1  7530U 74089B   19270.89299384 -.00000038 +00000-0 +44687-4 0  9999
2  7530 101.7566 237.5589 0012189 150.1306 265.4556 12.53640085052968
OSCAR 11 (UoSAT 2)
1 14781U 84021B   19270.63212118 +.00000083 +00000-0 +16271-4 0  9991
2 14781 097.6066 290.5500 0008322 358.7944 001.3249 14.83108192892727
OSCAR 19 (LUSAT)
1 20442U 90005G   19270.91821367 -.00000022 +00000-0 +82203-5 0  9997
2 20442 098.6556 212.7813 0011149 206.4960 153.5655 14.32933349550810
EYESAT A
1 22825U 93061C   19270.60155490 -.00000006 +00000-0 +15653-4 0  9998
2 22825 098.9115 261.5786 0009436 067.9378 292.2804 14.30067099356102
ITAMSAT
1 22826U 93061D   19270.92945426 +.00000005 +00000-0 +19729-4 0  9996
2 22826 098.9056 261.8929 0009854 056.7127 303.4997 14.30401246356374
RADIO ROSTO
1 23439U 94085A   19270.88925717 -.00000040 +00000-0 +74586-4 0  9992
2 23439 064.8165 312.4772 0145347 093.5496 268.2063 11.27568156019301
JAS 2
1 24278U 96046B   19270.92729993 -.00000028 +00000-0 +90868-5 0  9994
2 24278 098.5530 050.6666 0349933 337.7281 020.8972 13.53093548141247
TECHSAT 1B
1 25397U 98043D   19270.89417142 -.00000016 +00000-0 +12314-4 0  9998
2 25397 098.6948 209.8396 0002377 095.6796 264.4653 14.23671120102055
ISS (ZARYA)
1 25544U 98067A   19270.97571668 -.00000124  00000-0  58800-5 0  9992
2 25544  51.6422 211.5073 0007572  91.0703  25.5180 15.50107687191206
PCSAT
1 26931U 01043C   19270.94601060 -.00000015 +00000-0 +25908-4 0  9999
2 26931 067.0497 102.3938 0007427 270.1533 089.8717 14.30553433939386
SAUDISAT 1C
1 27607U 02058C   19270.93708405 +.00000004 +00000-0 +21432-4 0  9992
2 27607 064.5538 100.0493 0076258 236.8707 122.5062 14.75573820901845
CUTE-1
1 27844U 03031E   19270.96263258 +.00000053 +00000-0 +43326-4 0  9992
2 27844 098.6855 277.6663 0010981 097.3711 262.8715 14.22196226842642
CUBESAT XI 4
1 27848U 03031J   19270.56141263 +.00000040 +00000-0 +37813-4 0  9993
2 27848 098.6931 277.7920 0010817 108.9580 251.2771 14.21789099842446
MOZHAYETS 4
1 27939U 03042A   19270.80424953  .00000085  00000-0  23808-4 0  9991
2 27939  98.0548  44.7320 0014261 106.8832 253.3950 14.66805144855361
CUBESAT XI 5
1 28895U 05043F   19270.88906108 +.00000104 +00000-0 +28806-4 0  9996
2 28895 097.9739 050.2356 0017508 036.3414 323.8974 14.63693511742054
CUTE-1.7+APD II
1 32785U 08021C   19270.80102841 +.00000206 +00000-0 +27850-4 0  9993
2 32785 097.5552 265.7729 0011618 290.4871 069.5099 14.88348486618654
DELFI C3
1 32789U 08021G   19270.94027507 +.00001557 +00000-0 +10747-3 0  9993
2 32789 097.4552 317.5075 0013453 134.5684 225.6644 15.07131108622116
SEEDS
1 32791U 08021J   19270.78314845 +.00000193 +00000-0 +24960-4 0  9990
2 32791 097.5313 271.8231 0011763 260.3424 099.6466 14.90874413619091
YUBELEINY
1 32953U 08025A   19270.89324415  .00000020  00000-0  75656-4 0  9997
2 32953  82.4980  81.8225 0018668 269.1275  90.7663 12.43091151514886
PRISM (HITOMI)
1 33493U 09002B   19270.74710923  .00001093  00000-0  10108-3 0  9991
2 33493  98.1211 195.5328 0014257 203.1714 156.8865 14.96741169580264
KKS-1 (KISEKI)
1 33499U 09002H   19270.92467501 +.00000078 +00000-0 +19582-4 0  9996
2 33499 098.3433 112.8332 0007992 241.0583 118.9824 14.75464360573727
SWISSCUBE
1 35932U 09051B   19270.45940819 +.00000125 +00000-0 +39244-4 0  9990
2 35932 098.5977 079.4424 0007024 209.2008 150.8796 14.56312063531403
BEESAT
1 35933U 09051C   19270.45632969 +.00000099 +00000-0 +33361-4 0  9999
2 35933 098.5997 081.2401 0005013 221.5095 138.5722 14.56397702531473
ITUPSAT 1
1 35935U 09051E   19270.70970128  .00000086  00000-0  31041-4 0  9990
2 35935  98.6106  81.7315 0007346 220.7206 139.3442 14.55553943531336
XIWANG-1 (HOPE-1)
1 36122U 09072B   19270.74592750 -.00000029 +00000-0 +35270-4 0  9993
2 36122 100.0772 268.3902 0007825 108.2908 251.9060 13.16351181470175
TISAT 1
1 36799U 10035E   19270.87543436 +.00000268 +00000-0 +33116-4 0  9996
2 36799 098.1689 066.4660 0013542 112.2909 247.9746 14.91162183499641
JUGNU
1 37839U 11058B   19269.90774128  .00000296  00000-0  16177-4 0  9993
2 37839  19.9613  87.0495 0018987 352.0567 127.6730 14.12659133411440
SRMSAT
1 37841U 11058D   19270.03433583 +.00000306 +00000-0 +22653-4 0  9997
2 37841 019.9713 145.1343 0011862 218.5004 283.1401 14.10639609410782
M-CUBED/EXP-1 PRIME
1 37855U 11061F   19270.88321881 +.00001159 +00000-0 +65421-4 0  9993
2 37855 101.7132 218.4247 0173069 136.7321 224.7635 15.05595704431538
HORYU 2
1 38340U 12025D   19270.80616215 +.00000175 +00000-0 +33568-4 0  9998
2 38340 098.3203 312.3842 0012071 156.4619 203.7145 14.75751933385666
STRAND 1
1 39090U 13009E   19270.81335399 +.00000047 +00000-0 +31727-4 0  9999
2 39090 098.4792 115.0347 0009112 356.1142 003.9971 14.35098310344877
SOMP
1 39134U 13015E   19270.86421168 +.00001532 +00000-0 +78450-4 0  9994
2 39134 064.8636 052.6130 0035908 287.3538 072.3663 15.20341988355598
BEESAT 3
1 39135U 13015F   19270.83482419  .00000914  00000-0  54605-4 0  9997
2 39135  64.8680  72.4422 0034500 296.3842  63.3744 15.17613420355596
BEESAT 2
1 39136U 13015G   19270.91035893 +.00000934 +00000-0 +56699-4 0  9994
2 39136 064.8687 076.3106 0026257 301.8780 057.9791 15.17033844355136
CUBEBUG 1
1 39153U 13018D   19270.79844348  .00000188  00000-0  31413-4 0  9993
2 39153  97.9808   8.3690 0015951 227.6106 132.3757 14.80598398346775
ZACUBE
1 39417U 13066B   19270.56838270 +.00000216 +00000-0 +33308-4 0  9998
2 39417 097.5629 278.4015 0060313 063.9752 296.7656 14.81151579315974
TRITON 1
1 39427U 13066M   19270.88877368 +.00000166 +00000-0 +34467-4 0  9996
2 39427 097.6882 242.0755 0113149 200.8159 158.8421 14.67882144312994
GOMX 1
1 39430U 13066Q   19270.82975504  .00000147  00000-0  36099-4 0  9997
2 39430  97.7565 220.7688 0150236 295.8086  62.7690 14.59288523311358
HUMSAT D
1 39433U 13066T   19270.66692960 +.00000570 +00000-0 +60844-4 0  9999
2 39433 097.5443 313.9965 0029774 326.1287 033.8030 14.92255303316955
CUBEBUG 2
1 39440U 13066AA  19270.90593006 +.00000195 +00000-0 +33789-4 0  9996
2 39440 097.6086 263.3979 0081578 115.6831 245.2832 14.75888950313706
FUNCUBE 1
1 39444U 13066AE  19270.85062638 +.00000273 +00000-0 +39710-4 0  9993
2 39444 097.5603 280.7095 0059358 056.6414 304.0462 14.81978231314329
UWE-3
1 39446U 13066AG  19270.93976431 +.00000222 +00000-0 +35878-4 0  9994
2 39446 097.5849 270.5546 0071568 089.6754 271.2658 14.78424170313630
SPROUT
1 39770U 14029E   19270.87813765 +.00000662 +00000-0 +79251-4 0  9998
2 39770 097.8880 013.5405 0009807 110.2963 249.9269 14.87433751289870
UNISAT 6
1 40012U 14033C   19270.75536596 +.00000181 +00000-0 +34101-4 0  9996
2 40012 097.7429 132.9429 0059318 130.7910 229.8467 14.74009865283571
DUCHIFAT 1
1 40021U 14033M   19270.83696525 +.00000322 +00000-0 +38644-4 0  9997
2 40021 097.9234 195.7650 0014392 077.4134 282.8692 14.90688097286613
QB50P1
1 40025U 14033R   19270.83940223 +.00000251 +00000-0 +32691-4 0  9995
2 40025 097.9032 190.3491 0013937 086.7038 273.5773 14.88986516285864
CHUBUSAT 1
1 40300U 14070C   19270.77865819  .00000477  00000-0  23666-4 0  9994
2 40300  97.3186 342.3702 0021246  60.9531  87.0830 15.22178414271396
NUDT-PHONESAT
1 40900U 15049B   19270.76688444  .00001468  00000-0  65247-4 0  9995
2 40900  97.4386 279.1265 0012519 182.8228 281.8410 15.23063423223047
ZDPS 2A
1 40901U 15049C   19270.93598689 +.00000690 +00000-0 +37370-4 0  9998
2 40901 097.4624 275.3098 0012430 204.8794 214.1255 15.17842681222599
ZDPS 2B
1 40902U 15049D   19270.78673787  .00000794  00000-0  42680-4 0  9990
2 40902  97.4570 272.5772 0012387 203.1245 282.1070 15.17696650222540
XW-2A
1 40903U 15049E   19270.88912215  .00001533  00000-0  37736-4 0  9992
2 40903  97.3292 314.1850 0014553 133.3657 345.4834 15.42115361225849
KAITUO 1A
1 40904U 15049F   19270.83262825  .00000346  00000-0  21772-4 0  9997
2 40904  97.4708 271.1285 0013397 213.2647 268.1735 15.15439270222317
OBJECT G
1 40905U 15049G   19270.78716611  .00000275  00000-0  18543-4 0  9992
2 40905  97.4758 268.5302 0014680 208.3854 275.7936 15.14347983222173
XW-2C
1 40906U 15049H   19270.81291931  .00000529  00000-0  31162-4 0  9994
2 40906  97.4717 271.2370 0013559 204.0730 279.5226 15.15759308222314
XW-2D
1 40907U 15049J   19270.77791727  .00000264  00000-0  17198-4 0  9997
2 40907  97.4697 270.8826 0013205 200.7618 283.3214 15.15952118222324
LILACSAT 2
1 40908U 15049K   19270.86390315 +.00000442 +00000-0 +28000-4 0  9998
2 40908 097.4829 269.6849 0014735 209.1526 270.4025 15.13854274222119
XW-2F
1 40910U 15049M   19270.89242630  .00000554  00000-0  31037-4 0  9998
2 40910  97.4657 273.1452 0014130 192.2786 211.8092 15.17428586222367
XW-2B
1 40911U 15049N   19270.87985166  .00000579  00000-0  33676-4 0  9993
2 40911  97.4715 271.6495 0013108 201.0144 275.2620 15.15882730222234
KAITUO 1B
1 40912U 15049P   19270.90000507  .00000713  00000-0  36484-4 0  9995
2 40912  97.4518 276.9529 0014877 173.2594 226.1525 15.19756921222689
